Tracking 19293 objects as of 21-Nov-2018
HD Live streaming from Space Station
objects crossing your sky now

COSMOS 2228

Track COSMOS 2228 now!
10-day predictions
COSMOS 2228 is classified as:


NORAD ID: 22286
Int'l Code: 1992-094A
Perigee: 596.8 km
Apogee: 625.9 km
Inclination: 82.5 °
Period: 96.8 minutes
Semi major axis: 6982 km
RCS: 5.331 m2 (large)
Launch date: December 25, 1992
Source: Commonwealth of Independent States (former USSR) (CIS)
Launch site: PLESETSK MISSILE AND SPACE COMPLEX (PKMTR)
aabbcc
Your satellite tracking list
Your tracking list is empty




NASA's NSSDC Master Catalog

Two Line Element Set (TLE):
1 22286U 92094A   18325.18903020  .00000172  00000-0  15947-4 0  9996
2 22286  82.5219 241.7251 0020888 184.2794 175.8248 14.87989363400111
Source of the keplerian elements: AFSPC